#timestamp,LO_Frequency,Hit 
1501718415.3,286047001.4,N
1501718435.1,286047004.1,N
1501718455.8,286047003.7,N
1501718475.7,286046999.7,N
1501718495.5,286046999.8,N
1501718515.3,286046999.9,N
1501718535.2,286047001.0,N
1501718555.0,286047001.1,N
1501718555.9,286047001.1,N
1501718575.7,286047000.8,N
1501718595.6,286046998.8,N
1501718615.4,286046999.0,N
1501718635.2,286046999.0,N
1501718655.1,286046996.5,N
1501718656.0,286046996.5,N
1501718675.8,286046999.4,N
1501718695.6,286046996.9,N
1501718715.5,286046998.9,N
1501718735.3,286046999.9,N
1501718755.1,286047002.8,N
1501718775.9,286047000.5,N
1501718795.7,286046999.7,N
1501718815.5,286046999.9,N
1501718835.4,286047001.7,N
1501718855.2,286047002.5,N
1501718875.0,286047002.7,N
1501718875.9,286047002.7,N
1501718895.8,286047000.9,N
1501718915.6,286047000.8,N
1501718935.4,286047000.5,N
1501718955.2,286046998.9,N
1501718975.1,286046996.7,N
1501718976.0,286046996.7,N
1501718995.8,286046997.6,N
1501719015.6,286046996.8,N
1501719035.5,286046995.6,N
1501719055.3,286046995.4,N
1501719075.1,286046997.1,N
1501719095.9,286046996.7,N
1501719115.7,286047000.8,N
1501719135.5,286046999.9,N
1501719155.4,286047002.7,N
1501719175.2,286047003.9,N
1501719195.0,286047003.0,N
1501719195.9,286047003.0,N
1501719215.8,286047002.9,N
1501719235.6,286047002.9,N
1501719255.4,286047001.8,N
1501719275.3,286047002.2,N
1501719295.1,286046998.3,N
1501719296.0,286046998.3,N
1501719315.8,286046998.1,N
1501719335.7,286047002.8,N
1501719355.5,286047001.9,N
1501719375.3,286047000.3,N
1501719395.1,286047001.2,N
1501719415.9,286047002.7,N
1501719435.7,286047006.0,N
1501719455.5,286047001.3,N
1501719475.4,286047001.3,N
1501719495.2,286047001.4,N
1501719515.0,286047003.8,N
1501719515.9,286047003.8,N
1501719535.8,286047003.8,N
1501719555.6,286047005.9,N
1501719575.4,286047003.0,N
1501719595.3,286047005.8,N
1501719615.1,286047005.9,N
1501719616.0,286047005.9,N
1501719635.8,286047003.7,N
1501719655.7,286047003.2,N
1501719675.5,286047004.8,N
1501719695.3,286047004.5,N
1501719715.2,286047003.5,N
1501719735.9,286047002.9,N
1501719755.7,286047007.6,P
1501719775.6,286047002.9,N
1501719795.4,286047005.5,N
1501719815.2,286047006.7,P
1501719835.1,286047003.9,P
1501719836.0,286047003.9,P
1501719855.8,286047003.6,P
1501719875.6,286046999.4,N
1501719895.5,286046998.6,N
1501719915.3,286047000.6,N
1501719935.1,286046999.1,N
1501719955.9,286046998.3,N
1501719975.7,286046999.1,N
1501719995.5,286046995.3,N
1501720015.4,286046994.9,N
1501720035.2,286046999.3,N
1501720055.0,286047002.4,N
1501720055.9,286047002.4,N
1501720075.8,286046999.9,N
1501720095.6,286047003.7,N
1501720115.5,286046999.7,N
1501720135.3,286046999.6,N
1501720155.1,286047000.7,N
1501720175.9,286047005.7,N
1501720195.7,286047007.2,N
1501720215.5,286047007.1,N
1501720235.4,286047005.0,N
1501720255.2,286047005.9,N
1501720275.0,286047001.9,N
1501720275.9,286047001.9,N
1501720295.8,286047000.2,N
1501720315.6,286047001.7,N
1501720335.4,286047002.9,N
1501720355.2,286047003.9,N
1501720375.1,286047001.4,N
1501720376.0,286047001.4,N
1501720395.8,286047000.7,N
1501720415.6,286046998.3,N
1501720435.5,286046999.6,N
1501720455.3,286046997.6,N
1501720475.1,286046995.2,N
1501720495.9,286046995.7,N
1501720515.7,286046997.0,N
1501720535.5,286046999.1,N
1501720555.4,286047001.1,N
1501720575.2,286047004.2,N
1501720595.0,286047003.2,N
1501720595.9,286047003.2,N
1501720615.8,286047003.0,N
1501720635.6,286047005.1,N
1501720655.4,286047004.2,N
1501720675.3,286047002.0,N
1501720695.1,286047002.6,N
1501720696.0,286047002.6,N
1501720715.8,286047000.2,N
1501720735.7,286047001.3,N
1501720755.5,286047000.6,N
1501720775.3,286047001.0,N
1501720795.2,286047000.2,N
1501720815.9,286047004.1,N
1501720835.7,286047004.0,N
1501720855.5,286047001.9,N
1501720875.4,286047001.7,N
1501720895.2,286047000.2,N
1501720915.0,286047003.5,N
1501720915.9,286047003.5,N
1501720935.8,286047001.6,N
1501720955.6,286047000.3,N
1501720975.4,286047000.8,N
1501720995.3,286047001.1,N
1501721015.1,286047000.9,N
1501721035.8,286046999.8,N
1501721055.7,286047001.4,N
1501721075.5,286047004.9,P
1501721095.3,286047003.5,N
1501721115.2,286047003.9,P
1501721135.9,286047003.3,P
1501721155.7,286047001.2,P
1501721175.6,286047000.7,N
1501721195.4,286047000.5,N
1501721215.2,286047004.1,P
1501721235.1,286046999.3,N
1501721236.0,286046999.3,N
1501721255.8,286046996.5,N
1501721275.6,286046996.5,N
1501721295.5,286046996.4,N
1501721315.3,286046992.9,N
1501721335.1,286046990.8,N
1501721355.9,286046992.5,N
1501721375.7,286046994.1,N
1501721395.5,286046994.8,N
1501721415.4,286046993.6,N
1501721435.2,286046997.6,N
1501721455.0,286046994.3,N
1501721455.9,286046994.3,N
1501721475.8,286046996.1,N
1501721495.6,286046995.2,N
1501721515.4,286046993.3,N
1501721535.3,286046996.3,N
1501721555.1,286046994.1,N
1501721556.0,286046994.1,N
1501721575.8,286046994.5,N
1501721595.7,286046993.5,N
1501721615.5,286046994.2,N
1501721635.3,286046991.8,N
1501721655.1,286046992.3,N
1501721675.9,286046995.9,N
1501721695.7,286046997.4,N
1501721715.5,286046995.5,N
1501721735.4,286046993.8,N
1501721755.2,286046995.6,N
1501721775.0,286046995.7,N
1501721775.9,286046995.7,N
1501721795.8,286046996.2,N
1501721815.6,286046994.7,P
1501721835.4,286047000.5,P
1501721855.1,286047001.4,N
1501721875.9,286047004.7,N
1501721895.7,286047004.1,N
1501721915.5,286047006.9,N
1501721935.4,286047003.3,N
1501721955.2,286047001.7,N
1501721975.0,286047003.5,N
1501721975.9,286047003.5,N
1501721995.8,286047004.4,N
